Regional Weather Roundup
Issued by NWS Nashville, TN

Home | Current Version | Previous Version | Text Only | Print | Product List | Glossary On
Versions: 1 2 3 4 5 6 7 8 9 10 11 12 13 14 15 16 17 18 19 20 21 22 23 24 25 26 27
000
ASUS44 KOHX 170410
RWROHX
MIDDLE TENNESSEE HOURLY WEATHER ROUNDUP
NATIONAL WEATHER SERVICE NASHVILLE TN
1000 PM CST SAT DEC 16 2017

NOTE: "FAIR" INDICATES FEW OR NO CLOUDS BELOW 12,000 FEET WITH
NO SIGNIFICANT WEATHER AND/OR OBSTRUCTIONS TO VISIBILITY.

* THESE REPORTS ARE NOT UNDER NWS QUALITY CONTROL AND MAY NOT
  REPORT WEATHER SUCH AS PRECIPITATION AND FOG.


TNZ005>011-023>034-057-059-062>066-078-080-170500
...NORTHERN MIDDLE TENNESSEE...

CITY           SKY/WX    TMP DP  RH WIND       PRES   REMARKS
CLARKSVILLE    CLOUDY    42  27  55 S3        30.20R
CROSSVILLE     CLOUDY    36  27  69 S5        30.23S WCI  32
GALLATIN       CLEAR     41  30  65 CALM      30.25S
DICKSON          N/A     42  27  55 S8        30.20S
NASHVILLE      CLOUDY    42  30  62 SE5       30.23S
PORTLAND         N/A     41  30  65 S7        30.21R
SMYRNA         PTCLDY    41  30  65 S5        30.25S
SPARTA         CLEAR     32  28  86 S5        30.24R WCI  27
SPRINGFIELD    CLEAR     43  30  61 S6        30.19S
WEST NASHVILLE CLEAR     45  30  57 CALM      30.21S
$$
TNZ056-058-060-061-075>077-079-093>097-170500
...SOUTHERN MIDDLE TENNESSEE...

CITY           SKY/WX    TMP DP  RH WIND       PRES   REMARKS
COLUMBIA       CLEAR     43  28  56 S7        30.22S
FAYETTEVILLE   CLEAR     39  28  65 S7        30.25R WCI  34
MCMINNVILLE    CLEAR     34  28  80 CALM      30.24S
MURFREESBORO   PTCLDY    41  30  65 S5        30.24S
PULASKI        CLEAR     32  30  93 CALM      30.24S
SHELBYVILLE    CLEAR     36  28  75 S5        30.25S WCI  32
TULLAHOMA      CLEAR     39  28  65 SE5       30.24S
WINCHESTER     CLEAR     36  27  69 CALM      30.26S
$$


...KEY TO REMARKS...
VSB - VISIBILITY IN MILES
WCI - WIND CHILL INDEX
HX  - HEAT INDEX





USA.gov is the U.S. government's official web portal to all federal, state and local government web resources and services.